Regional Weather Roundup
Issued by NWS

Home | Current Version | Previous Version | Graphics & Text | Print | Product List | Glossary On
Versions: 1 2 3 4 5 6 7 8 9 10 11 12 13 14 15 16 17 18 19 20 21 22 23 24 25 26 27 28 29 30 31 32 33 34 35 36 37 38 39 40 41 42 43 44 45 46 47 48 49 50
414
ASUS45 KCYS 271010
RWRWY

WYOMING REGIONAL WEATHER ROUNDUP
NATIONAL WEATHER SERVICE CHEYENNE WY
400 AM MDT THU JUL 27 2017

NOTE:  "FAIR" INDICATES FEW OR NO CLOUDS BELOW 12,000 FEET
WITH NO SIGNIFICANT WEATHER AND/OR OBSTRUCTIONS TO VISIBILITY.

WYZ001-271100-
YELLOWSTONE NATIONAL PARK

CITY           SKY/WX    TMP DP  RH WIND       PRES   REMARKS
LK YELLOWSTONE   N/A     50  49  96 CALM      30.40S
W YELLOWSTONE  NOT AVBL

$$
WYZ002>013-054>058-071-098>099-271100-
NORTHERN WYOMING

CITY           SKY/WX    TMP DP  RH WIND       PRES   REMARKS
JACKSON        FAIR      50  46  87 NE3       30.32S
CODY           FAIR      61  54  77 S7        30.18F
GREYBULL       FAIR      66  54  65 NW5       30.10S
WORLAND        FAIR      61  56  83 NW3       30.12R
SHERIDAN       FAIR      57  52  83 CALM      30.08S
BUFFALO        FAIR      62  54  74 S6        30.15F
GILLETTE       FAIR      68  56  65 S8        30.15R
HULETT         FAIR      72  52  49 SE8       30.17F
NEWCASTLE      FAIR      68  54  60 E16G24    30.19S

$$
WYZ014>020-022>026-101>103-271100-
CENTRAL WYOMING

CITY           SKY/WX    TMP DP  RH WIND       PRES   REMARKS
BIG PINEY      FAIR      53  48  83 NE3       30.33S
PINEDALE       FAIR      50  46  87 NW7       30.35S
DUBOIS         FAIR      52  45  76 NW8       30.32F
LANDER         FAIR      61  50  67 W10       30.19F
RIVERTON       FAIR      58  56  93 NW8       30.20S
CASPER         FAIR      56  55  97 W3        30.20S
DOUGLAS        FAIR      63  57  81 E10       30.19F

$$
WYZ021-027>030-104>119-271100-
SOUTHERN WYOMING

CITY           SKY/WX    TMP DP  RH WIND       PRES   REMARKS
EVANSTON       FAIR      53  50  89 SW9       30.34S
KEMMERER         N/A     55  48  76 CALM      30.36S
FORT BRIDGER   FAIR      55  53  92 W7        30.37S
ROCK SPRINGS   MOCLDY    61  51  70 SW7       30.31F
RAWLINS        FAIR      56  53  90 N6        30.31F
LARAMIE        FAIR      53  52  96 S6        30.32F
CHEYENNE       FAIR      60  57  89 SE5       30.28S
TORRINGTON     CLOUDY    67  63  87 SE8       30.17S
PINE BLUFFS    FAIR      61  61 100 SE3       30.25R

$$




USA.gov is the U.S. government's official web portal to all federal, state and local government web resources and services.